Location: Fours
(44.3167°N, 6.7000°E)
Time: 08:43:19
(UTC+00:00)

Landsat 5 - Pass Details

Date: 30 November 2020
Orbit: 528 x 654 km, 98.2° (Epoch: 25 January)

Event Time Altitude Azimuth Distance (km) Brightness Sun altitude
Rises 16:44:45 0° 11° (N) 2,941 6.7 -8.7°
Reaches altitude 10° 16:46:57 10° 9° (N) 2,042 5.9 -9.1°
Maximum altitude 16:51:24 73° 286° (WNW) 685 3.9 -9.8°
Drops below altitude 10° 16:55:54 10° 202° (SSW) 2,057 6.9 -10.6°
Sets 16:58:07 0° 200° (SSW) 2,965 7.7 -10.9°
